TimeEDT,TemperatureF,Dew PointF,Humidity,Sea Level PressureIn,VisibilityMPH,Wind Direction,Wind SpeedMPH,Gust SpeedMPH,PrecipitationIn,Events,Conditions,WindDirDegrees,DateUTC
12:52 AM,71.1,69.1,93,29.91,7.0,Calm,Calm,-,0.00,Rain,Light Rain,0,2013-08-27 04:52:00
1:20 AM,71.6,69.8,94,29.90,2.5,North,4.6,-,0.07,Rain,Heavy Rain,360,2013-08-27 05:20:00
1:31 AM,69.8,69.8,100,29.89,1.8,NE,3.5,-,0.15,Rain,Heavy Rain,40,2013-08-27 05:31:00
1:38 AM,71.6,69.8,94,29.89,2.5,NNE,3.5,-,0.18,Rain,Light Rain,30,2013-08-27 05:38:00
1:52 AM,70.0,69.1,97,29.88,1.0,Calm,Calm,-,0.29,Rain,Heavy Rain,0,2013-08-27 05:52:00
1:57 AM,69.8,69.8,100,29.87,0.8,Calm,Calm,-,0.12,Rain,Heavy Rain,0,2013-08-27 05:57:00
2:03 AM,69.8,69.8,100,29.87,2.0,ESE,3.5,-,0.14,Rain,Rain,120,2013-08-27 06:03:00
2:12 AM,69.8,69.8,100,29.86,4.0,SE,4.6,-,0.15,Rain,Light Rain,140,2013-08-27 06:12:00
2:28 AM,69.8,69.8,100,29.86,4.0,SSE,5.8,-,0.15,Rain,Light Rain,160,2013-08-27 06:28:00
2:52 AM,71.1,70.0,96,29.85,4.0,South,5.8,-,0.16,Rain,Light Rain,170,2013-08-27 06:52:00
2:59 AM,71.6,69.8,94,29.84,3.0,South,6.9,-,0.01,Rain,Light Rain,180,2013-08-27 06:59:00
3:06 AM,71.6,69.8,94,29.84,3.0,South,5.8,-,0.02,Rain,Light Rain,180,2013-08-27 07:06:00
3:15 AM,71.6,69.8,94,29.84,4.0,South,8.1,-,0.02,Rain,Light Rain,190,2013-08-27 07:15:00
3:52 AM,72.0,70.0,93,29.82,4.0,SSW,8.1,-,0.03,,Mostly Cloudy,210,2013-08-27 07:52:00
4:52 AM,72.0,71.1,97,29.81,5.0,SW,5.8,-,0.01,,Overcast,220,2013-08-27 08:52:00
5:47 AM,71.6,71.6,100,29.81,5.0,West,3.5,-,0.00,Rain,Light Rain,260,2013-08-27 09:47:00
5:52 AM,72.0,71.1,97,29.81,4.0,West,3.5,-,0.00,Rain,Light Rain,260,2013-08-27 09:52:00
6:08 AM,71.6,69.8,94,29.81,3.0,West,4.6,-,0.02,Rain,Light Rain,260,2013-08-27 10:08:00
6:52 AM,71.1,69.1,93,29.82,3.0,North,11.5,-,0.04,Rain,Light Rain,350,2013-08-27 10:52:00
6:56 AM,71.6,69.8,94,29.82,1.8,North,8.1,-,0.00,Rain,Rain,350,2013-08-27 10:56:00
7:13 AM,71.6,69.8,94,29.82,3.0,North,5.8,-,0.04,Rain,Light Rain,350,2013-08-27 11:13:00
7:28 AM,71.6,69.8,94,29.82,8.0,North,8.1,-,0.04,,Overcast,360,2013-08-27 11:28:00
7:52 AM,71.1,69.1,93,29.83,10.0,North,8.1,-,0.04,,Overcast,360,2013-08-27 11:52:00
8:06 AM,71.6,69.8,94,29.83,10.0,North,10.4,-,N/A,,Overcast,360,2013-08-27 12:06:00
8:50 AM,71.6,69.8,94,29.84,10.0,North,9.2,-,N/A,,Overcast,350,2013-08-27 12:50:00
8:52 AM,72.0,69.1,91,29.84,10.0,North,6.9,-,N/A,,Overcast,350,2013-08-27 12:52:00
9:01 AM,71.6,69.8,94,29.85,10.0,North,8.1,-,N/A,,Overcast,350,2013-08-27 13:01:00
9:52 AM,73.0,69.1,87,29.86,10.0,NNW,9.2,-,N/A,,Overcast,340,2013-08-27 13:52:00
10:52 AM,78.1,69.1,74,29.86,10.0,North,11.5,-,N/A,,Scattered Clouds,10,2013-08-27 14:52:00
11:19 AM,78.8,69.8,74,29.86,10.0,North,13.8,18.4,N/A,,Mostly Cloudy,10,2013-08-27 15:19:00
11:27 AM,78.8,69.8,74,29.86,10.0,North,13.8,-,N/A,,Mostly Cloudy,10,2013-08-27 15:27:00
11:52 AM,81.0,70.0,69,29.86,10.0,NNE,10.4,-,N/A,,Scattered Clouds,20,2013-08-27 15:52:00
12:52 PM,82.9,70.0,65,29.86,10.0,North,11.5,23.0,N/A,,Mostly Cloudy,10,2013-08-27 16:52:00
1:04 PM,82.4,69.8,66,29.85,10.0,North,13.8,19.6,N/A,,Mostly Cloudy,350,2013-08-27 17:04:00
1:14 PM,82.4,69.8,66,29.86,10.0,North,13.8,-,N/A,,Mostly Cloudy,350,2013-08-27 17:14:00
1:52 PM,84.9,70.0,61,29.86,10.0,NNE,10.4,-,N/A,,Partly Cloudy,20,2013-08-27 17:52:00
2:52 PM,84.9,69.1,59,29.84,10.0,NNW,11.5,-,N/A,,Scattered Clouds,340,2013-08-27 18:52:00
3:52 PM,84.9,69.1,59,29.83,10.0,WNW,9.2,-,N/A,,Clear,290,2013-08-27 19:52:00
4:52 PM,86.0,69.1,57,29.83,10.0,North,10.4,-,N/A,,Clear,360,2013-08-27 20:52:00
5:52 PM,84.0,68.0,58,29.84,10.0,NW,9.2,-,N/A,,Partly Cloudy,320,2013-08-27 21:52:00
6:52 PM,82.9,66.9,58,29.85,10.0,NW,5.8,-,N/A,,Scattered Clouds,310,2013-08-27 22:52:00
7:52 PM,80.1,66.9,64,29.86,10.0,NW,4.6,-,N/A,,Clear,310,2013-08-27 23:52:00
8:52 PM,78.1,66.9,68,29.88,10.0,NNW,3.5,-,N/A,,Clear,340,2013-08-28 00:52:00
9:52 PM,77.0,68.0,74,29.88,10.0,Calm,Calm,-,N/A,,Clear,0,2013-08-28 01:52:00
10:52 PM,75.0,69.1,82,29.90,10.0,East,5.8,-,N/A,,Scattered Clouds,100,2013-08-28 02:52:00
11:52 PM,73.9,70.0,87,29.91,10.0,SSW,3.5,-,N/A,,Scattered Clouds,210,2013-08-28 03:52:00